ASIASAT 7

Last updated on Thu Nov 21 2024 00:02:41 GMT+0000 (Coordinated Universal Time)

1 37933U 11069A 24325.55607968 -.00000333 00000+0 00000+0 0 9992 2 37933 0.0395 135.2663 0001717 92.0580 138.4171 1.00274583 39108
UTC large
Height (km)
Speed (km/s)
/
Latitude / Longitude
Inclination (degrees)
Orbital Period (minutes)
Azimuth
Elevation
Range (km)
Doppler Factor

Next 0 passes for location: London (51.5072 / 0.1276)

Sorry there are no passes over London.